Annaberg-Buchholz

Germany     50˚34′45″N   13˚00′50″E
temp.,
°C
wind,
m/s
gust,
m/s
humid.,
%
clouds,
%
prec.,
mm/h
press.,
hPa
HPBL,
m
1 december, tue
tue101:00−2˚ssw496632 0.0 1020248
04:00−2˚ssw31087100 0.1 1018331
07:00−2˚s3592100 0.6 1017197
10:00−1˚s358797 0.4 1018203
13:00sse238596 0.4 1018252
16:00−1˚se239497 0.0 1018172
19:00−2˚se239697 0.0 1020165
22:00−3˚se239763 0.0 1021136
2 december, wed
wed201:00−4˚se249651 0.0 1022149
04:00−5˚se249442 0.0 1021174
07:00−5˚se359242 0.0 1021211
10:00−5˚se368542 0.0 1020245
13:00−4˚se368141 0.0 1018320
16:00−5˚se368968 0.0 1017345
19:00−5˚se388280 0.0 1016341
22:00−5˚sse378479 0.0 1015288
3 december, thu
thu301:00−6˚sse238850 0.0 1014127
04:00−6˚sse239089 0.0 1012123
07:00−6˚sse238594 0.0 1011126
10:00−4˚s2477100 0.0 1010249
13:00−3˚sse3579100 0.0 1007405
16:00−4˚s3688100 0.1 1005507
19:00−4˚s3685100 0.1 1005495
22:00−5˚sse3589100 0.0 1003268
4 december, fri
fri401:00−5˚sse3791100 0.0 1001278
04:00−5˚sse2492100 0.0 998141
07:00−5˚se239081 0.0 99684
10:00−1˚sse369360 0.0 994224
13:00sse369077 0.0 993283
16:00−1˚se3597100 0.0 991185
19:00−1˚se369780 0.0 991238
22:00−1˚se5129490 0.0 990423
5 december, sat
sat501:00−1˚se6139295 0.1 989371
04:00+1˚se61496100 0.0 988558
07:00+1˚se4996100 0.0 989360
10:00+1˚sse249672 0.0 992210
13:00+3˚sse248786 0.0 993210
16:00wsw1195100 0.0 99522
19:00nnw2398100 0.2 995141
22:00−1˚n3598100 2.8 995190